| time (UTC) | temp F | wind direction | speed knots | gust knots | rain 1hr in | rain 24hr in | rain mn in | humidity % | barometer mb |
| 20260509032307 | 57 | 210 | 7.8 | 13.0 | 0.00 | 0.00 | 0.00 | 77 | 1012.6 |
| 20260509031806 | 57 | 210 | 7.0 | 13.0 | 0.00 | 0.00 | 0.00 | 77 | 1012.6 |
| 20260509025307 | 58 | 216 | 8.7 | 13.9 | 0.00 | 0.00 | 0.00 | 76 | 1012.4 |
| 20260509023306 | 58 | 220 | 10.4 | 15.6 | 0.00 | 0.00 | 0.00 | 74 | 1012.5 |
| 20260509022806 | 58 | 228 | 10.4 | 17.4 | 0.00 | 0.00 | 0.00 | 74 | 1012.4 |
| 20260509021306 | 59 | 229 | 8.7 | 15.6 | 0.00 | 0.00 | 0.00 | 74 | 1012.4 |
| 20260509020306 | 58 | 229 | 10.4 | 14.8 | 0.00 | 0.00 | 0.00 | 74 | 1012.3 |
| 20260509015306 | 58 | 226 | 7.8 | 12.2 | 0.00 | 0.00 | 0.00 | 74 | 1012.3 |
| 20260509014806 | 58 | 231 | 7.8 | 13.9 | 0.00 | 0.00 | 0.00 | 75 | 1012.2 |
| 20260509014307 | 58 | 238 | 8.7 | 13.9 | 0.00 | 0.00 | 0.00 | 75 | 1012.2 |
| 20260509013806 | 58 | 229 | 8.7 | 12.2 | 0.00 | 0.00 | 0.00 | 76 | 1012.1 |
| 20260509012307 | 57 | 215 | 8.7 | 14.8 | 0.00 | 0.00 | 0.00 | 75 | 1011.9 |
| 20260509010807 | 57 | 213 | 8.7 | 15.6 | 0.00 | 0.00 | 0.00 | 74 | 1011.7 |
| 20260509005806 | 56 | 209 | 8.7 | 13.0 | 0.00 | 0.00 | 0.00 | 74 | 1011.6 |
| 20260509004806 | 56 | 214 | 6.1 | 10.4 | 0.00 | 0.00 | 0.00 | 74 | 1011.5 |
| 20260509003306 | 56 | 213 | 6.1 | 15.6 | 0.00 | 0.00 | 0.00 | 73 | 1011.4 |
| 20260509002807 | 56 | 221 | 8.7 | 17.4 | 0.00 | 0.00 | 0.00 | 73 | 1011.4 |
| 20260509002306 | 56 | 215 | 9.6 | 17.4 | 0.00 | 0.00 | 0.00 | 73 | 1011.4 |
| 20260509000306 | 56 | 214 | 7.0 | 13.9 | 0.00 | 0.00 | 0.00 | 71 | 1011.3 |
| 20260508235806 | 56 | 216 | 6.1 | 12.2 | 0.00 | 0.00 | 0.00 | 71 | 1011.3 |
| 20260508234306 | 56 | 206 | 8.7 | 17.4 | 0.00 | 0.00 | 0.00 | 69 | 1011.2 |
| 20260508233806 | 56 | 210 | 8.7 | 14.8 | 0.00 | 0.00 | 0.00 | 68 | 1011.2 |
| 20260508232805 | 56 | 221 | 7.8 | 13.9 | 0.00 | 0.00 | 0.00 | 67 | 1011.1 |
| 20260508232307 | 56 | 207 | 11.3 | 17.4 | 0.00 | 0.00 | 0.00 | 67 | 1011.1 |
| 20260508225307 | 57 | 206 | 11.3 | 19.1 | 0.00 | 0.00 | 0.00 | 63 | 1010.8 |
| 20260508215805 | 56 | 194 | 11.3 | 20.9 | 0.00 | 0.00 | 0.00 | 67 | 1010.8 |
| 20260508213306 | 57 | 200 | 11.3 | 19.1 | 0.00 | 0.00 | 0.00 | 65 | 1010.7 |
| 20260508212306 | 56 | 194 | 8.7 | 20.0 | 0.00 | 0.00 | 0.00 | 64 | 1010.8 |
| 20260508211306 | 57 | 210 | 9.6 | 17.4 | 0.00 | 0.00 | 0.00 | 64 | 1010.7 |
| 20260508210306 | 56 | 196 | 10.4 | 19.1 | 0.00 | 0.00 | 0.00 | 63 | 1010.6 |
| 20260508204805 | 56 | 203 | 12.2 | 22.6 | 0.00 | 0.00 | 0.00 | 63 | 1010.7 |
| 20260508204307 | 56 | 211 | 12.2 | 15.6 | 0.00 | 0.00 | 0.00 | 63 | 1010.8 |
| 20260508203306 | 56 | 189 | 12.2 | 18.2 | 0.00 | 0.00 | 0.00 | 66 | 1010.7 |
| 20260508202805 | 56 | 188 | 9.6 | 20.9 | 0.00 | 0.00 | 0.00 | 64 | 1010.7 |
| 20260508200806 | 56 | 194 | 10.4 | 15.6 | 0.00 | 0.00 | 0.00 | 72 | 1010.6 |
| 20260508193805 | 56 | 197 | 11.3 | 17.4 | 0.00 | 0.00 | 0.00 | 72 | 1010.9 |
| 20260508193305 | 56 | 179 | 12.2 | 20.9 | 0.00 | 0.00 | 0.00 | 71 | 1010.8 |
| 20260508192306 | 56 | 183 | 10.4 | 17.4 | 0.00 | 0.00 | 0.00 | 71 | 1010.9 |
| 20260508191306 | 56 | 185 | 10.4 | 17.4 | 0.00 | 0.00 | 0.00 | 69 | 1011.0 |
| 20260508190806 | 57 | 186 | 11.3 | 20.0 | 0.00 | 0.00 | 0.00 | 68 | 1011.1 |
| 20260508185306 | 56 | 183 | 7.8 | 12.2 | 0.00 | 0.00 | 0.00 | 69 | 1011.5 |
| 20260508184806 | 56 | 202 | 8.7 | 18.2 | 0.00 | 0.00 | 0.00 | 68 | 1011.6 |
| 20260508183305 | 56 | 186 | 8.7 | 17.4 | 0.00 | 0.00 | 0.00 | 69 | 1011.6 |
| 20260508182307 | 57 | 190 | 8.7 | 20.0 | 0.00 | 0.00 | 0.00 | 65 | 1011.7 |
| 20260508181305 | 57 | 184 | 10.4 | 15.6 | 0.00 | 0.00 | 0.00 | 65 | 1011.7 |
| 20260508180805 | 57 | 193 | 8.7 | 17.4 | 0.00 | 0.00 | 0.00 | 64 | 1011.6 |
| 20260508180305 | 57 | 192 | 8.7 | 13.9 | 0.00 | 0.00 | 0.00 | 65 | 1011.7 |
| 20260508175306 | 58 | 196 | 10.4 | 17.4 | 0.00 | 0.00 | 0.00 | 66 | 1011.7 |
| 20260508172806 | 58 | 193 | 10.4 | 14.8 | 0.00 | 0.00 | 0.00 | 62 | 1012.0 |
| 20260508172308 | 57 | 202 | 13.0 | 19.1 | 0.00 | 0.00 | 0.00 | 59 | 1012.1 |
| 20260508170806 | 57 | 195 | 8.7 | 14.8 | 0.00 | 0.00 | 0.00 | 66 | 1012.0 |
| 20260508165805 | 56 | 188 | 7.8 | 15.6 | 0.00 | 0.00 | 0.00 | 69 | 1012.1 |
| 20260508165307 | 57 | 187 | 6.1 | 15.6 | 0.00 | 0.00 | 0.00 | 68 | 1012.1 |
| 20260508163805 | 58 | 223 | 7.8 | 12.2 | 0.00 | 0.00 | 0.00 | 64 | 1012.3 |
| 20260508161305 | 63 | 224 | 6.1 | 10.4 | 0.00 | 0.00 | 0.00 | 42 | 1012.5 |
| 20260508155807 | 62 | 256 | 5.2 | 11.3 | 0.00 | 0.00 | 0.00 | 41 | 1012.5 |
| 20260508155306 | 63 | 267 | 2.6 | 5.2 | 0.00 | 0.00 | 0.00 | 41 | 1012.6 |
| 20260508154305 | 62 | 282 | 4.3 | 15.6 | 0.00 | 0.00 | 0.00 | 44 | 1012.8 |
| 20260508152306 | 61 | 307 | 3.5 | 7.8 | 0.00 | 0.00 | 0.00 | 43 | 1013.0 |
| 20260508151805 | 61 | 258 | 4.3 | 6.1 | 0.00 | 0.00 | 0.00 | 42 | 1013.1 |
| 20260508151305 | 60 | 249 | 4.3 | 7.8 | 0.00 | 0.00 | 0.00 | 45 | 1013.2 |
| 20260508150305 | 60 | 245 | 2.6 | 4.3 | 0.00 | 0.00 | 0.00 | 46 | 1013.2 |
| 20260508145806 | 60 | 270 | 1.7 | 7.8 | 0.00 | 0.00 | 0.00 | 44 | 1013.2 |
| 20260508145307 | 60 | 289 | 0.9 | 2.6 | 0.00 | 0.00 | 0.00 | 44 | 1013.1 |
| 20260508143806 | 60 | 335 | 1.7 | 2.6 | 0.00 | 0.00 | 0.00 | 45 | 1013.1 |
| 20260508141805 | 59 | 292 | 1.7 | 2.6 | 0.00 | 0.00 | 0.00 | 46 | 1013.2 |
| 20260508140308 | 59 | 344 | 1.7 | 4.3 | 0.00 | 0.00 | 0.00 | 48 | 1013.1 |
| 20260508135805 | 58 | 342 | 2.6 | 6.1 | 0.00 | 0.00 | 0.00 | 50 | 1013.2 |
| 20260508134307 | 58 | 284 | 1.7 | 6.1 | 0.00 | 0.00 | 0.00 | 53 | 1013.3 |
| 20260508133308 | 57 | 274 | 1.7 | 4.3 | 0.00 | 0.00 | 0.00 | 54 | 1013.4 |
| 20260508132306 | 57 | 316 | 1.7 | 2.6 | 0.00 | 0.00 | 0.00 | 52 | 1013.3 |
| 20260508131804 | 56 | 280 | 1.7 | 4.3 | 0.00 | 0.00 | 0.00 | 56 | 1013.2 |
| 20260508131305 | 56 | 284 | 2.6 | 4.3 | 0.00 | 0.00 | 0.00 | 55 | 1013.3 |
| 20260508130805 | 56 | 279 | 2.6 | 5.2 | 0.00 | 0.00 | 0.00 | 57 | 1013.3 |
| 20260508130305 | 56 | 296 | 1.7 | 4.3 | 0.00 | 0.00 | 0.00 | 60 | 1013.3 |
| 20260508124804 | 55 | 259 | 2.6 | 5.2 | 0.00 | 0.00 | 0.00 | 67 | 1013.3 |
| 20260508123305 | 54 | 274 | 1.7 | 2.6 | 0.00 | 0.00 | 0.00 | 71 | 1013.3 |
| 20260508121305 | 52 | 261 | 1.7 | 2.6 | 0.00 | 0.00 | 0.00 | 74 | 1013.2 |
| 20260508120805 | 52 | 287 | 1.7 | 4.3 | 0.00 | 0.00 | 0.00 | 74 | 1013.3 |
| 20260508120304 | 51 | 294 | 0.9 | 2.6 | 0.00 | 0.00 | 0.00 | 75 | 1013.3 |
| 20260508115306 | 51 | 280 | 1.7 | 4.3 | 0.00 | 0.00 | 0.00 | 76 | 1013.2 |
| 20260508114304 | 51 | 301 | 1.7 | 4.3 | 0.00 | 0.00 | 0.00 | 76 | 1013.2 |
| 20260508113305 | 51 | 280 | 1.7 | 4.3 | 0.00 | 0.00 | 0.00 | 76 | 1013.0 |
| 20260508111305 | 50 | 350 | 2.6 | 7.8 | 0.00 | 0.00 | 0.00 | 76 | 1012.6 |
| 20260508110305 | 50 | 357 | 5.2 | 8.7 | 0.00 | 0.00 | 0.00 | 76 | 1012.5 |
| 20260508105805 | 50 | 352 | 4.3 | 8.7 | 0.00 | 0.00 | 0.00 | 76 | 1012.5 |
| 20260508105306 | 50 | 332 | 4.3 | 7.8 | 0.00 | 0.00 | 0.00 | 76 | 1012.5 |
| 20260508104805 | 50 | 331 | 3.5 | 10.4 | 0.00 | 0.00 | 0.00 | 77 | 1012.4 |
| 20260508104304 | 50 | 352 | 6.1 | 10.4 | 0.00 | 0.00 | 0.00 | 76 | 1012.4 |
| 20260508103804 | 50 | 329 | 5.2 | 8.7 | 0.00 | 0.00 | 0.00 | 77 | 1012.3 |
| 20260508102805 | 50 | 10 | 5.2 | 10.4 | 0.00 | 0.00 | 0.00 | 78 | 1012.2 |
| 20260508101305 | 50 | 338 | 7.8 | 13.0 | 0.00 | 0.00 | 0.00 | 78 | 1012.1 |
| 20260508094805 | 50 | 340 | 7.0 | 12.2 | 0.00 | 0.00 | 0.00 | 79 | 1011.8 |
| 20260508093305 | 50 | 6 | 10.4 | 15.6 | 0.00 | 0.00 | 0.00 | 78 | 1011.4 |
| 20260508091805 | 51 | 350 | 8.7 | 15.6 | 0.00 | 0.00 | 0.00 | 80 | 1011.2 |
| 20260508090805 | 51 | 8 | 8.7 | 17.4 | 0.00 | 0.00 | 0.00 | 80 | 1010.8 |
| 20260508090305 | 51 | 355 | 8.7 | 14.8 | 0.00 | 0.00 | 0.00 | 82 | 1010.7 |
| 20260508085307 | 51 | 351 | 8.7 | 14.8 | 0.00 | 0.00 | 0.00 | 84 | 1010.6 |
| 20260508084805 | 51 | 343 | 7.8 | 12.2 | 0.00 | 0.00 | 0.00 | 85 | 1010.5 |
| 20260508083305 | 51 | 343 | 8.7 | 14.8 | 0.00 | 0.00 | 0.00 | 87 | 1010.2 |
| 20260508082306 | 51 | 319 | 4.3 | 10.4 | 0.00 | 0.00 | 0.00 | 88 | 1010.0 |
| 20260508081805 | 51 | 291 | 4.3 | 10.4 | 0.00 | 0.00 | 0.00 | 88 | 1009.8 |
| 20260508075805 | 51 | 278 | 5.2 | 10.4 | 0.00 | 0.00 | 0.00 | 87 | 1009.3 |
| 20260508072307 | 51 | 270 | 5.2 | 8.7 | 0.00 | 0.01 | 0.00 | 87 | 1008.7 |
| 20260508071805 | 51 | 257 | 5.2 | 8.7 | 0.00 | 0.02 | 0.00 | 87 | 1008.7 |
| 20260508071304 | 51 | 265 | 6.1 | 10.4 | 0.00 | 0.07 | 0.00 | 86 | 1008.7 |
| 20260508070805 | 51 | 264 | 6.1 | 10.4 | 0.00 | 0.07 | 0.00 | 86 | 1008.7 |
| 20260508065805 | 51 | 262 | 8.7 | 13.0 | 0.00 | 0.08 | 0.00 | 86 | 1008.7 |
| 20260508064305 | 51 | 253 | 7.8 | 10.4 | 0.00 | 0.12 | 0.00 | 86 | 1008.6 |
| 20260508063804 | 51 | 258 | 7.8 | 12.2 | 0.00 | 0.14 | 0.00 | 87 | 1008.6 |
| 20260508063305 | 51 | 257 | 7.8 | 11.3 | 0.00 | 0.14 | 0.00 | 87 | 1008.6 |
| 20260508062805 | 51 | 255 | 6.1 | 10.4 | 0.00 | 0.14 | 0.00 | 87 | 1008.7 |
| 20260508062306 | 51 | 259 | 6.1 | 10.4 | 0.00 | 0.14 | 0.00 | 87 | 1008.7 |
| 20260508054804 | 52 | 254 | 8.7 | 11.3 | 0.00 | 0.14 | 0.00 | 86 | 1008.6 |
| 20260508053305 | 52 | 249 | 6.1 | 13.0 | 0.00 | 0.14 | 0.00 | 85 | 1008.6 |
| 20260508052805 | 52 | 259 | 7.8 | 11.3 | 0.00 | 0.14 | 0.00 | 85 | 1008.6 |
| 20260508052307 | 52 | 255 | 7.8 | 13.0 | 0.00 | 0.14 | 0.00 | 85 | 1008.7 |
| 20260508050806 | 53 | 251 | 6.1 | 12.2 | 0.00 | 0.14 | 0.00 | 86 | 1008.7 |
| 20260508050304 | 53 | 241 | 6.1 | 11.3 | 0.00 | 0.14 | 0.00 | 86 | 1008.7 |
| 20260508045805 | 53 | 248 | 7.8 | 13.9 | 0.00 | 0.14 | 0.00 | 86 | 1008.7 |
| 20260508044805 | 53 | 237 | 6.1 | 12.2 | 0.00 | 0.14 | 0.00 | 86 | 1008.7 |
| 20260508044305 | 53 | 242 | 7.8 | 12.2 | 0.00 | 0.14 | 0.00 | 86 | 1008.7 |
| 20260508043305 | 53 | 248 | 7.8 | 13.0 | 0.00 | 0.14 | 0.00 | 86 | 1008.6 |
| 20260508040305 | 54 | 237 | 7.0 | 11.3 | 0.00 | 0.14 | 0.00 | 87 | 1008.7 |
| 20260508034805 | 53 | 234 | 7.0 | 10.4 | 0.00 | 0.14 | 0.14 | 92 | 1008.8 |
| 20260508033804 | 52 | 190 | 4.3 | 7.8 | 0.00 | 0.14 | 0.14 | 92 | 1008.7 |
| 20260508033304 | 52 | 204 | 4.3 | 8.7 | 0.00 | 0.14 | 0.14 | 92 | 1008.8 |